Time,TemperatureF,DewpointF,PressureIn,WindDirection,WindDirectionDegrees,WindSpeedMPH,WindSpeedGustMPH,Humidity,HourlyPrecipIn,Conditions,Clouds,dailyrainin,SolarRadiationWatts/m^2,SoftwareType,DateUTC
2013-07-23 00:22:00,66.0,31.0,-100.00,SW,227,8.0,18.0,27,-99.99,,,0.00,0.000000,,2013-07-23 06:22:00,
2013-07-23 00:33:00,66.0,31.0,-100.00,SW,227,8.0,18.0,27,-99.99,,,0.00,0.000000,,2013-07-23 06:33:00,
2013-07-23 00:42:00,66.0,31.0,-100.00,SW,227,8.0,18.0,27,-99.99,,,0.00,0.000000,,2013-07-23 06:42:00,
2013-07-23 00:52:00,66.0,31.0,-100.00,SW,227,8.0,18.0,27,-99.99,,,0.00,0.000000,,2013-07-23 06:52:00,
2013-07-23 01:21:00,64.0,30.0,-100.00,NW,314,6.0,19.0,28,0.00,,,0.00,0.000000,,2013-07-23 07:21:00,
2013-07-23 01:33:00,64.0,30.0,-100.00,NW,314,6.0,19.0,28,0.00,,,0.00,0.000000,,2013-07-23 07:33:00,
2013-07-23 01:42:00,64.0,30.0,-100.00,NW,314,6.0,19.0,28,0.00,,,0.00,0.000000,,2013-07-23 07:42:00,
2013-07-23 01:52:00,64.0,30.0,-100.00,NW,314,6.0,19.0,28,0.00,,,0.00,0.000000,,2013-07-23 07:52:00,
2013-07-23 02:21:00,67.0,30.0,-100.00,NW,306,8.0,11.0,25,0.00,,,0.00,0.000000,,2013-07-23 08:21:00,
2013-07-23 03:22:00,65.0,26.0,-100.00,NW,308,14.0,14.0,23,-99.99,,,0.00,0.000000,,2013-07-23 09:22:00,
2013-07-23 03:33:00,65.0,26.0,-100.00,NW,308,14.0,14.0,23,-99.99,,,0.00,0.000000,,2013-07-23 09:33:00,
2013-07-23 03:42:00,65.0,26.0,-100.00,NW,308,14.0,14.0,23,-99.99,,,0.00,0.000000,,2013-07-23 09:42:00,
2013-07-23 05:22:00,64.0,31.0,-100.00,NW,311,16.0,18.0,29,0.00,,,0.00,0.000000,,2013-07-23 11:22:00,
2013-07-23 05:32:00,64.0,31.0,-100.00,NW,311,16.0,18.0,29,0.00,,,0.00,0.000000,,2013-07-23 11:32:00,
2013-07-23 06:22:00,63.0,31.0,-100.00,NW,312,13.0,21.0,30,0.00,,,0.00,0.000000,,2013-07-23 12:22:00,
2013-07-23 06:33:00,63.0,31.0,-100.00,NW,312,13.0,21.0,30,0.00,,,0.00,0.000000,,2013-07-23 12:33:00,
2013-07-23 07:22:00,64.0,33.0,-100.00,NW,315,12.0,21.0,31,0.00,,,0.00,44.000000,,2013-07-23 13:22:00,
2013-07-23 07:32:00,64.0,33.0,-100.00,NW,315,12.0,21.0,31,0.00,,,0.00,44.000000,,2013-07-23 13:32:00,
2013-07-23 07:43:00,64.0,33.0,-100.00,NW,315,12.0,21.0,31,0.00,,,0.00,44.000000,,2013-07-23 13:43:00,
2013-07-23 07:52:00,64.0,33.0,-100.00,NW,315,12.0,21.0,31,0.00,,,0.00,44.000000,,2013-07-23 13:52:00,
2013-07-23 08:53:00,70.0,33.0,-100.00,NW,316,10.0,18.0,25,-99.99,,,-99.99,268.000000,,2013-07-23 14:53:00,
2013-07-23 09:24:00,70.0,32.0,-100.00,West,263,11.0,17.0,24,0.00,,,0.00,541.000000,,2013-07-23 15:24:00,
2013-07-23 09:32:00,70.0,32.0,-100.00,West,263,11.0,17.0,24,0.00,,,0.00,541.000000,,2013-07-23 15:32:00,
2013-07-23 09:43:00,70.0,32.0,-100.00,West,263,11.0,17.0,24,0.00,,,0.00,541.000000,,2013-07-23 15:43:00,
2013-07-23 09:52:00,70.0,32.0,-100.00,West,263,11.0,17.0,24,0.00,,,0.00,541.000000,,2013-07-23 15:52:00,
2013-07-23 10:22:00,75.0,30.0,-100.00,WNW,284,7.0,19.0,19,0.00,,,0.00,808.000000,,2013-07-23 16:22:00,
2013-07-23 10:33:00,75.0,30.0,-100.00,WNW,284,7.0,19.0,19,0.00,,,0.00,808.000000,,2013-07-23 16:33:00,
2013-07-23 10:43:00,75.0,30.0,-100.00,WNW,284,7.0,19.0,19,0.00,,,0.00,808.000000,,2013-07-23 16:43:00,
2013-07-23 10:52:00,75.0,30.0,-100.00,WNW,284,7.0,19.0,19,0.00,,,0.00,808.000000,,2013-07-23 16:52:00,
2013-07-23 11:21:00,76.0,28.0,-100.00,West,263,5.0,16.0,17,0.00,,,0.00,1049.000000,,2013-07-23 17:21:00,
2013-07-23 11:32:00,76.0,28.0,-100.00,West,263,5.0,16.0,17,0.00,,,0.00,1049.000000,,2013-07-23 17:32:00,
2013-07-23 11:42:00,76.0,28.0,-100.00,West,263,5.0,16.0,17,0.00,,,0.00,1049.000000,,2013-07-23 17:42:00,
2013-07-23 11:53:00,76.0,28.0,-100.00,West,263,5.0,16.0,17,0.00,,,0.00,1049.000000,,2013-07-23 17:53:00,
2013-07-23 12:24:00,75.0,34.0,-100.00,East,96,6.0,16.0,22,0.00,,,-99.99,1226.000000,,2013-07-23 18:24:00,
2013-07-23 12:33:00,75.0,34.0,-100.00,East,96,6.0,16.0,22,0.00,,,-99.99,1226.000000,,2013-07-23 18:33:00,
2013-07-23 12:44:00,75.0,34.0,-100.00,East,96,6.0,16.0,22,0.00,,,-99.99,1226.000000,,2013-07-23 18:44:00,
2013-07-23 12:52:00,75.0,34.0,-100.00,East,96,6.0,16.0,22,0.00,,,-99.99,1226.000000,,2013-07-23 18:52:00,
2013-07-23 13:24:00,78.0,35.0,-100.00,ENE,73,7.0,15.0,21,0.00,,,0.00,1347.000000,,2013-07-23 19:24:00,
2013-07-23 13:52:00,78.0,35.0,-100.00,ENE,73,7.0,15.0,21,0.00,,,0.00,1347.000000,,2013-07-23 19:52:00,
2013-07-23 14:22:00,77.0,36.0,-100.00,NNE,15,7.0,16.0,23,0.00,,,0.00,1391.000000,,2013-07-23 20:22:00,
2013-07-23 14:44:00,77.0,36.0,-100.00,NNE,15,7.0,16.0,23,0.00,,,0.00,1391.000000,,2013-07-23 20:44:00,
2013-07-23 14:53:00,77.0,36.0,-100.00,NNE,15,7.0,16.0,23,0.00,,,0.00,1391.000000,,2013-07-23 20:53:00,
2013-07-23 15:22:00,79.0,34.0,-100.00,East,82,8.0,16.0,20,0.00,,,0.00,1370.000000,,2013-07-23 21:22:00,
2013-07-23 15:34:00,79.0,34.0,-100.00,East,82,8.0,16.0,20,0.00,,,0.00,1370.000000,,2013-07-23 21:34:00,
2013-07-23 15:45:00,79.0,34.0,-100.00,East,82,8.0,16.0,20,0.00,,,0.00,1370.000000,,2013-07-23 21:45:00,
2013-07-23 15:54:00,80.0,33.0,-100.00,East,87,12.0,19.0,18,0.00,,,0.00,1272.000000,,2013-07-23 21:54:00,
2013-07-23 16:23:00,80.0,33.0,-100.00,East,87,12.0,19.0,18,0.00,,,0.00,1272.000000,,2013-07-23 22:23:00,
2013-07-23 16:33:00,80.0,33.0,-100.00,East,87,12.0,19.0,18,0.00,,,0.00,1272.000000,,2013-07-23 22:33:00,
2013-07-23 16:43:00,80.0,33.0,-100.00,East,87,12.0,19.0,18,0.00,,,0.00,1272.000000,,2013-07-23 22:43:00,
2013-07-23 17:24:00,81.0,32.0,-100.00,East,101,7.0,20.0,17,0.00,,,0.00,1112.000000,,2013-07-23 23:24:00,
2013-07-23 17:43:00,81.0,32.0,-100.00,East,101,7.0,20.0,17,0.00,,,0.00,1112.000000,,2013-07-23 23:43:00,
2013-07-23 18:33:00,79.0,29.0,-100.00,ENE,78,9.0,19.0,16,0.00,,,0.00,880.000000,,2013-07-24 00:33:00,
2013-07-23 18:44:00,79.0,29.0,-100.00,ENE,78,9.0,19.0,16,0.00,,,0.00,880.000000,,2013-07-24 00:44:00,
2013-07-23 18:53:00,79.0,29.0,-100.00,ENE,78,9.0,19.0,16,0.00,,,0.00,880.000000,,2013-07-24 00:53:00,
2013-07-23 19:24:00,80.0,28.0,-100.00,ENE,58,6.0,14.0,15,0.00,,,0.00,631.000000,,2013-07-24 01:24:00,
2013-07-23 19:32:00,80.0,28.0,-100.00,ENE,58,6.0,14.0,15,0.00,,,0.00,631.000000,,2013-07-24 01:32:00,
2013-07-23 19:43:00,80.0,28.0,-100.00,ENE,58,6.0,14.0,15,0.00,,,0.00,631.000000,,2013-07-24 01:43:00,
2013-07-23 19:53:00,80.0,28.0,-100.00,ENE,58,6.0,14.0,15,0.00,,,0.00,631.000000,,2013-07-24 01:53:00,
2013-07-23 20:24:00,75.0,26.0,-100.00,ENE,64,4.0,11.0,16,0.00,,,0.00,362.000000,,2013-07-24 02:24:00,
2013-07-23 20:35:00,75.0,26.0,-100.00,ENE,64,4.0,11.0,16,0.00,,,0.00,362.000000,,2013-07-24 02:35:00,
2013-07-23 20:44:00,75.0,26.0,-100.00,ENE,64,4.0,11.0,16,0.00,,,0.00,362.000000,,2013-07-24 02:44:00,
2013-07-23 21:23:00,73.0,26.0,-100.00,North,1,4.0,10.0,17,0.00,,,0.00,111.000000,,2013-07-24 03:23:00,
2013-07-23 21:34:00,73.0,26.0,-100.00,North,1,4.0,10.0,17,0.00,,,0.00,111.000000,,2013-07-24 03:34:00,
2013-07-23 21:43:00,73.0,26.0,-100.00,North,1,4.0,10.0,17,0.00,,,0.00,111.000000,,2013-07-24 03:43:00,
2013-07-23 21:53:00,73.0,26.0,-100.00,North,1,4.0,10.0,17,0.00,,,0.00,111.000000,,2013-07-24 03:53:00,
2013-07-23 22:22:00,71.0,24.0,-100.00,NNW,333,2.0,7.0,17,0.00,,,0.00,3.000000,,2013-07-24 04:22:00,
2013-07-23 22:32:00,71.0,24.0,-100.00,NNW,333,2.0,7.0,17,0.00,,,0.00,3.000000,,2013-07-24 04:32:00,
2013-07-23 22:43:00,71.0,24.0,-100.00,NNW,333,2.0,7.0,17,0.00,,,0.00,3.000000,,2013-07-24 04:43:00,
2013-07-23 23:22:00,69.0,31.0,-100.00,North,352,7.0,7.0,24,0.00,,,0.00,0.000000,,2013-07-24 05:22:00,
2013-07-23 23:32:00,69.0,31.0,-100.00,North,352,7.0,7.0,24,0.00,,,0.00,0.000000,,2013-07-24 05:32:00,
2013-07-23 23:43:00,69.0,31.0,-100.00,North,352,7.0,7.0,24,0.00,,,0.00,0.000000,,2013-07-24 05:43:00,
2013-07-23 23:52:00,69.0,31.0,-100.00,North,352,7.0,7.0,24,0.00,,,0.00,0.000000,,2013-07-24 05:52:00,